Location: Cedar Brake
(32.2526°N, 97.8459°W)
Time: 08:17:27
(UTC+00:00)

Cosmos 2219 Rocket - Pass Details

Date: 22 April 2026
Orbit: 826 x 846 km, 71.0° (Epoch: 15 May)

Event Time Altitude Azimuth Distance (km) Brightness Sun altitude
Rises 09:48:24 0° 341° (NNW) 3,390 5.5 -25.0°
Reaches altitude 10° 09:50:51 10° 343° (NNW) 2,456 4.8 -24.5°
Maximum altitude 09:56:29 77° 69° (ENE) 865 2.3 -23.5°
Drops below altitude 10° 10:02:08 10° 156° (SSE) 2,453 4.5 -22.5°
Sets 10:04:34 0° 157° (SSE) 3,386 5.2 -22.1°
